• In Hungary
  • List of Countries
  • For 7 days
  • Water Temperature
  • Satellite Maps
  • Weather Map
  • News
  • Weather Widgets
  • user-avatar
    Login

    Hourly Weather Yulbashevo

    Today, 23 September, Sunday

    Time Temperature Precipitation Wind Pressure Humidity
    00:00 +13°C° 0 mm 1 mps 742 mmHg 92%
    01:00 +13°C° 0 mm 1 mps 742 mmHg 93%
    02:00 +13°C° 0 mm 1 mps 742 mmHg 94%
    03:00 +13°C° 0 mm 1 mps 742 mmHg 95%
    04:00 +13°C° 0 mm 2 mps 742 mmHg 95%
    05:00 +13°C° 0.2 mm 2 mps 742 mmHg 95%
    06:00 +13°C° 0.2 mm 1 mps 742 mmHg 96%
    07:00 +14°C° 0.2 mm 1 mps 742 mmHg 96%
    08:00 +15°C° 0 mm 1 mps 742 mmHg 93%
    09:00 +16°C° 0 mm 1 mps 742 mmHg 89%
    10:00 +18°C° 0 mm 1 mps 742 mmHg 85%
    11:00 +19°C° 0 mm 1 mps 742 mmHg 80%
    12:00 +20°C° 0 mm 1 mps 742 mmHg 75%
    13:00 +21°C° 0 mm 1 mps 742 mmHg 71%
    14:00 +21°C° 0 mm 1 mps 742 mmHg 71%
    15:00 +21°C° 0 mm 1 mps 742 mmHg 71%
    16:00 +21°C° 0 mm 1 mps 742 mmHg 71%
    17:00 +20°C° 0 mm 1 mps 742 mmHg 76%
    18:00 +19°C° 0 mm 1 mps 742 mmHg 82%
    19:00 +16°C° 0 mm 1 mps 742 mmHg 87%
    20:00 +16°C° 0 mm 1 mps 742 mmHg 88%
    21:00 +15°C° 0 mm 1 mps 742 mmHg 89%
    22:00 +15°C° 0 mm 1 mps 742 mmHg 90%
    23:00 +15°C° 0 mm 1 mps 742 mmHg 91%

    Tomorrow, 24 September, Monday

    Time Temperature Precipitation Wind Pressure Humidity
    00:00 +14°C° 0 mm 2 mps 741 mmHg 91%
    01:00 +14°C° 0 mm 2 mps 741 mmHg 92%
    02:00 +14°C° 0 mm 2 mps 741 mmHg 92%
    03:00 +14°C° 0 mm 2 mps 741 mmHg 92%
    04:00 +14°C° 0 mm 2 mps 741 mmHg 91%
    05:00 +14°C° 0 mm 2 mps 741 mmHg 91%
    06:00 +15°C° 0 mm 2 mps 741 mmHg 90%
    07:00 +15°C° 0 mm 2 mps 741 mmHg 89%
    08:00 +16°C° 0 mm 3 mps 741 mmHg 82%
    09:00 +17°C° 0 mm 3 mps 741 mmHg 75%
    10:00 +19°C° 0 mm 4 mps 741 mmHg 67%
    11:00 +20°C° 0 mm 5 mps 741 mmHg 61%
    12:00 +21°C° 0 mm 5 mps 741 mmHg 55%
    13:00 +22°C° 0 mm 6 mps 741 mmHg 49%
    14:00 +22°C° 0 mm 5 mps 741 mmHg 49%
    15:00 +22°C° 0 mm 5 mps 740 mmHg 49%
    16:00 +22°C° 0 mm 5 mps 740 mmHg 48%
    17:00 +21°C° 0 mm 4 mps 740 mmHg 53%
    18:00 +19°C° 0 mm 4 mps 740 mmHg 58%
    19:00 +17°C° 0 mm 3 mps 740 mmHg 63%
    20:00 +16°C° 0 mm 3 mps 740 mmHg 65%
    21:00 +16°C° 0 mm 3 mps 740 mmHg 66%
    22:00 +14°C° 0 mm 3 mps 740 mmHg 68%
    23:00 +14°C° 0 mm 3 mps 740 mmHg 70%

    Day after tomorrow, 25 September, Tuesday

    Time Temperature Precipitation Wind Pressure Humidity
    00:00 +14°C° 0 mm 2 mps 740 mmHg 72%
    01:00 +14°C° 0 mm 2 mps 740 mmHg 74%
    02:00 +13°C° 0 mm 2 mps 740 mmHg 75%
    03:00 +12°C° 0 mm 3 mps 740 mmHg 76%
    04:00 +12°C° 0 mm 3 mps 740 mmHg 77%
    05:00 +12°C° 0 mm 3 mps 740 mmHg 75%
    06:00 +12°C° 0 mm 3 mps 740 mmHg 72%
    07:00 +12°C° 0 mm 4 mps 740 mmHg 70%
    08:00 +15°C° 0 mm 5 mps 740 mmHg 62%
    09:00 +17°C° 0 mm 6 mps 740 mmHg 53%
    10:00 +20°C° 0 mm 7 mps 740 mmHg 45%
    11:00 +21°C° 0 mm 7 mps 740 mmHg 42%
    12:00 +22°C° 0 mm 8 mps 740 mmHg 39%
    13:00 +23°C° 0 mm 8 mps 740 mmHg 36%
    14:00 +23°C° 0 mm 7 mps 740 mmHg 37%
    15:00 +23°C° 0 mm 6 mps 739 mmHg 39%
    16:00 +23°C° 0 mm 5 mps 739 mmHg 40%
    17:00 +21°C° 0 mm 5 mps 739 mmHg 44%
    18:00 +19°C° 0 mm 4 mps 739 mmHg 48%
    19:00 +18°C° 0 mm 3 mps 739 mmHg 52%
    20:00 +17°C° 0 mm 3 mps 739 mmHg 53%
    21:00 +16°C° 0 mm 3 mps 739 mmHg 54%
    22:00 +16°C° 0 mm 3 mps 740 mmHg 54%
    23:00 +16°C° 0 mm 3 mps 740 mmHg 55%

    26 September, Wednesday

    Time Temperature Precipitation Wind Pressure Humidity
    00:00 +14°C° 0 mm 4 mps 740 mmHg 56%
    01:00 +14°C° 0 mm 4 mps 740 mmHg 56%
    02:00 +14°C° 0 mm 4 mps 740 mmHg 56%
    03:00 +14°C° 0 mm 4 mps 740 mmHg 56%
    04:00 +14°C° 0 mm 4 mps 740 mmHg 55%
    05:00 +14°C° 0 mm 4 mps 740 mmHg 56%
    06:00 +14°C° 0 mm 4 mps 740 mmHg 57%
    07:00 +14°C° 0 mm 3 mps 740 mmHg 58%
    08:00 +14°C° 0 mm 3 mps 740 mmHg 59%
    09:00 +15°C° 0 mm 4 mps 741 mmHg 61%
    10:00 +15°C° 0 mm 4 mps 741 mmHg 62%
    11:00 +15°C° 0.2 mm 4 mps 741 mmHg 65%
    12:00 +16°C° 0.2 mm 3 mps 741 mmHg 68%
    13:00 +16°C° 0.2 mm 3 mps 741 mmHg 70%
    14:00 +16°C° 0.1 mm 3 mps 742 mmHg 70%
    15:00 +17°C° 0.1 mm 3 mps 742 mmHg 71%
    16:00 +17°C° 0.1 mm 3 mps 742 mmHg 71%
    17:00 +16°C° 0.1 mm 3 mps 742 mmHg 75%
    18:00 +15°C° 0.1 mm 2 mps 742 mmHg 79%
    19:00 +15°C° 0.1 mm 2 mps 743 mmHg 83%
    20:00 +14°C° 0.5 mm 2 mps 743 mmHg 86%
    21:00 +13°C° 0.5 mm 2 mps 743 mmHg 89%
    22:00 +13°C° 0.5 mm 1 mps 743 mmHg 92%
    23:00 +13°C° 0.1 mm 2 mps 743 mmHg 93%

    27 September, Thursday

    Time Temperature Precipitation Wind Pressure Humidity
    00:00 +12°C° 0.1 mm 2 mps 743 mmHg 93%
    01:00 +12°C° 0.1 mm 2 mps 743 mmHg 93%
    02:00 +12°C° 0.1 mm 2 mps 743 mmHg 93%
    03:00 +10°C° 0.1 mm 2 mps 743 mmHg 93%
    04:00 +10°C° 0.1 mm 2 mps 743 mmHg 93%
    05:00 +10°C° 0.3 mm 2 mps 743 mmHg 93%
    06:00 +10°C° 0.3 mm 2 mps 743 mmHg 92%
    07:00 +10°C° 0.3 mm 2 mps 743 mmHg 91%
    08:00 +10°C° 0.4 mm 2 mps 743 mmHg 90%
    09:00 +10°C° 0.4 mm 2 mps 743 mmHg 89%
    10:00 +10°C° 0.4 mm 2 mps 743 mmHg 88%
    11:00 +10°C° 0.7 mm 2 mps 742 mmHg 88%
    12:00 +10°C° 0.7 mm 2 mps 742 mmHg 87%
    13:00 +9°C° 0.7 mm 3 mps 742 mmHg 87%
    14:00 +9°C° 1 mm 2 mps 742 mmHg 88%
    15:00 +8°C° 1 mm 2 mps 742 mmHg 89%
    16:00 +9°C° 1 mm 1 mps 742 mmHg 90%
    17:00 +8°C° 0.3 mm 1 mps 742 mmHg 90%
    18:00 +8°C° 0.3 mm 1 mps 742 mmHg 91%
    19:00 +7°C° 0.3 mm 1 mps 742 mmHg 92%
    20:00 +7°C° 0 mm 1 mps 742 mmHg 92%
    21:00 +6°C° 0 mm 1 mps 742 mmHg 92%
    22:00 +5°C° 0 mm 2 mps 742 mmHg 92%
    23:00 +5°C° 0 mm 2 mps 742 mmHg 93%

    28 September, Friday

    Time Temperature Precipitation Wind Pressure Humidity
    00:00 +5°C° 0 mm 2 mps 742 mmHg 93%
    01:00 +5°C° 0 mm 2 mps 741 mmHg 93%
    02:00 +4°C° 0 mm 3 mps 741 mmHg 93%
    03:00 +4°C° 0 mm 3 mps 741 mmHg 92%
    04:00 +4°C° 0 mm 3 mps 741 mmHg 92%
    05:00 +4°C° 0 mm 3 mps 741 mmHg 91%
    06:00 +4°C° 0 mm 4 mps 740 mmHg 91%
    07:00 +4°C° 0 mm 4 mps 740 mmHg 90%
    08:00 +6°C° 0 mm 4 mps 740 mmHg 81%
    09:00 +7°C° 0 mm 5 mps 740 mmHg 73%
    10:00 +8°C° 0 mm 6 mps 740 mmHg 64%
    11:00 +9°C° 0 mm 6 mps 740 mmHg 60%
    12:00 +10°C° 0 mm 6 mps 740 mmHg 57%
    13:00 +11°C° 0 mm 6 mps 740 mmHg 53%
    14:00 +11°C° 0 mm 6 mps 740 mmHg 54%
    15:00 +13°C° 0 mm 5 mps 740 mmHg 54%
    16:00 +13°C° 0 mm 5 mps 740 mmHg 55%
    17:00 +12°C° 0 mm 4 mps 741 mmHg 61%
    18:00 +10°C° 0 mm 3 mps 741 mmHg 66%
    19:00 +9°C° 0 mm 3 mps 741 mmHg 72%
    20:00 +8°C° 0 mm 3 mps 741 mmHg 73%
    21:00 +8°C° 0 mm 3 mps 741 mmHg 74%
    22:00 +8°C° 0 mm 3 mps 741 mmHg 74%
    23:00 +8°C° 0 mm 3 mps 740 mmHg 74%
    Show more